Volver al catálogo

STARLINK-34493

ActivoComunicacionesVLEO
NORAD 64472·PAYLOAD·🇺🇸 United States

Lanzado Jun 23, 2025 desde Cape Canaveral Space Force Station

Loading…

Próximos Pases (próximas 24 horas)

TLE

ActualizadoSource: CelesTrak SupGP

Época: Sep 15, 2026, 02:43 UTC

1 64472C 25133A   26258.11368056  .00051719  00000+0  15281-2 0  2589
2 64472  53.1582 314.6222 0001186  96.7612 235.4347 15.34364212    16

Sigue STARLINK-34493 en tiempo real con AllMySat

Download on the App Store